Staples, MN

6:04 AM CST on December 13, 2017 (GMT -0600)
Staples Municipal

Weather History for KSAZ - May, 2013

Change the Weather History Date:

Sunday, May 26, 2013

  Actual Average Record
Temperature  
Mean Temperature 55 °F -  
Max Temperature 62 °F 66 °F 82 °F (2014)
Min Temperature 48 °F 43 °F 33 °F (2004)
Degree Days  
Heating Degree Days 10    
Growing Degree Days 5 (Base 50)    
Moisture  
Dew Point 39 °F    
Average Humidity 56    
Maximum Humidity 82    
Minimum Humidity 34    
Precipitation  
Precipitation 0.00 in - - ()
Sea Level Pressure  
Sea Level Pressure 30.14 in    
Wind  
Wind Speed 8 mph (SE)    
Max Wind Speed 16 mph    
Max Gust Speed 24 mph    
Visibility 10 miles    
Events      
Averages and records for this station are not official NWS values.
T = Trace of Precipitation, MM = Missing Value Source: NWS Daily Summary

Daily Weather History Graph

Daily Weather History Graph

Search for Another Location

Airport or City:

Trip Planner

Search our weather history database for the weather conditions in past years. The results will help you decide how hot, cold, wet, or windy it might be!

Date:

Astronomy

May. 26, 2013 Rise Set
Actual Time 5:34 AM CDT 8:58 PM CDT
Civil Twilight 4:57 AM CDT 9:35 PM CDT
Nautical Twilight 4:08 AM CDT 10:24 PM CDT
Astronomical Twilight 3:06 AM CDT 11:28 PM CDT
Moon 10:45 PM CDT (5/26) 7:05 AM CDT (5/26)
Length of Visible Light 16h 38m
Length of Day
15h 24m
Waning Gibbous, 96% of the Moon is Illuminated
May 26
Waning Gibbous
May 31
Last Quarter
Jun 8
New
Jun 16
First Quarter
Jun 23
Full

Hourly Weather History & Observations

Time (CDT) Temp. Dew Point Humidity Pressure Visibility Wind Dir Wind Speed Gust Speed Precip Events Conditions
12:13 AM 55.4 °F 46.4 °F 72% 30.20 in 10.0 mi SSE 8.1 mph - N/A   Overcast
12:34 AM 53.6 °F 44.6 °F 72% 30.20 in 10.0 mi SE 9.2 mph - N/A   Overcast
12:53 AM 53.6 °F 44.6 °F 72% 30.20 in 10.0 mi SE 8.1 mph - N/A   Overcast
1:13 AM 53.6 °F 44.6 °F 72% 30.20 in 10.0 mi SE 4.6 mph - N/A   Overcast
1:34 AM 53.6 °F 44.6 °F 72% 30.19 in 10.0 mi ESE 4.6 mph - N/A   Overcast
1:53 AM 53.6 °F 46.4 °F 77% 30.19 in 10.0 mi SE 6.9 mph - N/A   Overcast
2:13 AM 53.6 °F 46.4 °F 77% 30.19 in 10.0 mi SE 6.9 mph - N/A   Overcast
2:34 AM 53.6 °F 46.4 °F 77% 30.18 in 10.0 mi SE 5.8 mph - N/A   Overcast
2:53 AM 53.6 °F 44.6 °F 72% 30.17 in 10.0 mi ESE 4.6 mph - N/A   Overcast
3:13 AM 53.6 °F 44.6 °F 72% 30.16 in 10.0 mi ESE 8.1 mph - N/A   Overcast
3:34 AM 53.6 °F 44.6 °F 72% 30.15 in 10.0 mi ESE 6.9 mph - N/A   Mostly Cloudy
3:53 AM 51.8 °F 44.6 °F 76% 30.16 in 10.0 mi ESE 4.6 mph - N/A   Scattered Clouds
4:14 AM 51.8 °F 44.6 °F 76% 30.18 in 10.0 mi ESE 4.6 mph - N/A   Mostly Cloudy
4:33 AM 51.8 °F 44.6 °F 76% 30.19 in 10.0 mi ESE 5.8 mph - N/A   Overcast
4:53 AM 51.8 °F 44.6 °F 76% 30.21 in 10.0 mi ESE 4.6 mph - N/A   Scattered Clouds
5:14 AM 51.8 °F 44.6 °F 76% 30.20 in 10.0 mi ESE 3.5 mph - N/A   Clear
5:33 AM 51.8 °F 42.8 °F 71% 30.19 in 10.0 mi ESE 6.9 mph - N/A   Clear
5:53 AM 51.8 °F 42.8 °F 71% 30.19 in 10.0 mi ESE 6.9 mph - N/A   Clear
6:14 AM 48.2 °F 42.8 °F 82% 30.17 in 10.0 mi East 6.9 mph - N/A   Clear
6:33 AM 48.2 °F 42.8 °F 82% 30.17 in 10.0 mi East 5.8 mph - N/A   Clear
6:53 AM 48.2 °F 42.8 °F 82% 30.20 in 10.0 mi ESE 5.8 mph - N/A   Clear
7:14 AM 50.0 °F 42.8 °F 76% 30.19 in 10.0 mi East 6.9 mph - N/A   Scattered Clouds
7:33 AM 50.0 °F 42.8 °F 76% 30.19 in 10.0 mi East 8.1 mph - N/A   Mostly Cloudy
7:53 AM 50.0 °F 42.8 °F 76% 30.20 in 10.0 mi East 6.9 mph - N/A   Scattered Clouds
8:14 AM 51.8 °F 41.0 °F 67% 30.18 in 10.0 mi ESE 8.1 mph - N/A   Clear
8:33 AM 51.8 °F 41.0 °F 67% 30.17 in 10.0 mi ESE 9.2 mph - N/A   Scattered Clouds
8:53 AM 53.6 °F 39.2 °F 58% 30.15 in 10.0 mi ESE 11.5 mph 17.3 mph N/A   Scattered Clouds
9:14 AM 55.4 °F 37.4 °F 51% 30.14 in 10.0 mi SE 11.5 mph 19.6 mph N/A   Clear
9:33 AM 55.4 °F 37.4 °F 51% 30.15 in 10.0 mi SE 11.5 mph 17.3 mph N/A   Clear
9:53 AM 55.4 °F 35.6 °F 47% 30.15 in 10.0 mi ESE 13.8 mph 20.7 mph N/A   Clear
10:14 AM 57.2 °F 33.8 °F 41% 30.17 in 10.0 mi SE 13.8 mph 23.0 mph N/A   Mostly Cloudy
10:33 AM 57.2 °F 33.8 °F 41% 30.17 in 10.0 mi SE 9.2 mph 19.6 mph N/A   Mostly Cloudy
10:53 AM 57.2 °F 33.8 °F 41% 30.17 in 10.0 mi SE 9.2 mph 18.4 mph N/A   Overcast
11:13 AM 57.2 °F 30.2 °F 36% 30.18 in 10.0 mi SE 13.8 mph 18.4 mph N/A   Overcast
11:33 AM 57.2 °F 30.2 °F 36% 30.18 in 10.0 mi SE 12.7 mph 21.9 mph N/A   Overcast
11:54 AM 59.0 °F 33.8 °F 39% 30.15 in 10.0 mi ESE 11.5 mph 19.6 mph N/A   Mostly Cloudy
12:13 PM 59.0 °F 35.6 °F 42% 30.15 in 10.0 mi SE 12.7 mph 24.2 mph N/A   Scattered Clouds
12:34 PM 60.8 °F 33.8 °F 36% 30.14 in 10.0 mi SE 15.0 mph 20.7 mph N/A   Mostly Cloudy
12:53 PM 60.8 °F 33.8 °F 36% 30.13 in 10.0 mi ESE 13.8 mph 23.0 mph N/A   Mostly Cloudy
1:13 PM 60.8 °F 33.8 °F 36% 30.13 in 10.0 mi SE 12.7 mph 21.9 mph N/A   Mostly Cloudy
1:34 PM 62.6 °F 33.8 °F 34% 30.13 in 10.0 mi SE 13.8 mph 24.2 mph N/A   Mostly Cloudy
1:53 PM 62.6 °F 33.8 °F 34% 30.12 in 10.0 mi SE 16.1 mph 21.9 mph N/A   Mostly Cloudy
2:13 PM 62.6 °F 33.8 °F 34% 30.12 in 10.0 mi ESE 11.5 mph 23.0 mph N/A   Overcast
2:32 PM 62.6 °F 35.6 °F 37% 30.11 in 10.0 mi SE 8.1 mph 19.6 mph N/A   Overcast
2:53 PM 60.8 °F 33.8 °F 36% 30.12 in 10.0 mi SE 13.8 mph 17.3 mph N/A   Overcast
3:13 PM 60.8 °F 33.8 °F 36% 30.12 in 10.0 mi SE 12.7 mph 17.3 mph N/A   Overcast
3:34 PM 60.8 °F 33.8 °F 36% 30.12 in 10.0 mi SE 11.5 mph 19.6 mph N/A   Overcast
3:53 PM 60.8 °F 33.8 °F 36% 30.12 in 10.0 mi SE 11.5 mph 16.1 mph N/A   Overcast
4:13 PM 59.0 °F 35.6 °F 42% 30.13 in 10.0 mi SSE 9.2 mph - N/A   Overcast
4:34 PM 59.0 °F 33.8 °F 39% 30.13 in 10.0 mi SSE 8.1 mph - N/A   Overcast
4:53 PM 57.2 °F 35.6 °F 44% 30.12 in 10.0 mi SE 9.2 mph - N/A   Overcast
5:13 PM 57.2 °F 35.6 °F 44% 30.12 in 10.0 mi SE 8.1 mph - N/A   Overcast
5:34 PM 57.2 °F 35.6 °F 44% 30.11 in 10.0 mi SE 6.9 mph - N/A   Overcast
5:53 PM 57.2 °F 35.6 °F 44% 30.11 in 10.0 mi SE 8.1 mph - N/A   Overcast
6:13 PM 57.2 °F 35.6 °F 44% 30.11 in 10.0 mi SE 10.4 mph 17.3 mph N/A   Overcast
6:34 PM 55.4 °F 37.4 °F 51% 30.11 in 10.0 mi SE 9.2 mph - N/A   Overcast
6:53 PM 55.4 °F 37.4 °F 51% 30.11 in 10.0 mi ESE 4.6 mph - N/A   Overcast
7:13 PM 55.4 °F 37.4 °F 51% 30.11 in 10.0 mi ESE 4.6 mph - N/A   Overcast
7:34 PM 55.4 °F 37.4 °F 51% 30.11 in 10.0 mi ESE 5.8 mph - N/A   Overcast
7:53 PM 55.4 °F 39.2 °F 54% 30.11 in 10.0 mi ESE 5.8 mph - N/A   Overcast
8:13 PM 55.4 °F 39.2 °F 54% 30.11 in 10.0 mi SE 5.8 mph - N/A   Overcast
8:34 PM 57.2 °F 41.0 °F 55% 30.11 in 10.0 mi SE 9.2 mph 16.1 mph N/A   Overcast
8:53 PM 57.2 °F 39.2 °F 51% 30.11 in 10.0 mi SE 11.5 mph 16.1 mph N/A   Overcast
9:13 PM 57.2 °F 39.2 °F 51% 30.10 in 10.0 mi SSE 13.8 mph 18.4 mph N/A   Overcast
9:34 PM 57.2 °F 39.2 °F 51% 30.10 in 10.0 mi SE 13.8 mph 24.2 mph N/A   Overcast
9:53 PM 55.4 °F 41.0 °F 58% 30.10 in 10.0 mi ESE 10.4 mph 20.7 mph N/A   Overcast
10:13 PM 57.2 °F 39.2 °F 51% 30.10 in 10.0 mi ESE 9.2 mph - N/A   Overcast
10:33 PM 57.2 °F 39.2 °F 51% 30.10 in 10.0 mi SE 8.1 mph - N/A   Overcast
10:53 PM 55.4 °F 39.2 °F 54% 30.09 in 10.0 mi SE 5.8 mph - N/A   Overcast
11:14 PM 55.4 °F 39.2 °F 54% 30.08 in 10.0 mi ESE 8.1 mph - N/A   Overcast
11:33 PM 55.4 °F 39.2 °F 54% 30.05 in 10.0 mi ESE 9.2 mph - N/A   Overcast
11:54 PM 55.4 °F 39.2 °F 54% 30.03 in 10.0 mi ESE 8.1 mph - N/A   Overcast